Location: Observatoire
(46.1952°N, 5.3391°E)
Time: 22:25:50
(UTC+01:00)

Tiros 1 despin weight - Pass Details

Date: 24 February 2026
Orbit: 556 x 593 km, 48.2° (Epoch: 7 March)

Event Time Altitude Azimuth Distance (km) Brightness Sun altitude
Rises 20:03:08 0° 278° (W) 2,732 ? -19.0°
Reaches altitude 10° 20:06:58 10° 242° (WSW) 1,832 ? -19.6°
Maximum altitude 20:08:10 11° 226° (SW) 1,762 ? -19.8°
Drops below altitude 10° 20:09:22 10° 209° (SSW) 1,831 ? -20.0°
Enters shadow 20:12:32 - 177° (S) 2,525 ? -20.6°
Sets 20:13:12 0° 173° (S) 2,725 - -20.7°
